{"data":{"norad_id":55766,"intl_designator":"2023-028AB","name":"STARLINK-5599","alt_names":[],"object_type":"PAYLOAD","status":"ACTIVE","operator":null,"country":"US","launch_date":"2023-03-03","launch_site_code":"AFWTR","launch_vehicle":null,"mission":null,"orbit_class":"UNKNOWN","rcs_meters":null,"size_class":null,"mass_kg":null,"dimensions":null,"purposes":["comms"],"wikipedia_slug":null,"has_3d_model":false,"image_url":null,"decayed_at":null,"tle_current":{"epoch":"2026-05-25T03:13:44.033088Z","epoch_age_seconds":60668,"freshness":"FRESH","line1":"1 55766U 23028AB  26145.13453742 -.00000341  00000+0 -20772-4 0  9992","line2":"2 55766  70.0002  31.7214 0002786 268.1989  91.8851 14.98332210177981","mean_motion":14.9833221,"eccentricity":0.0002786,"inclination_deg":70.0002,"raan_deg":31.7214,"arg_perigee_deg":268.1989,"mean_anomaly_deg":91.8851,"bstar":-2.0772e-5,"rev_number":17798,"period_min":96.106857370436,"perigee_km":570.11273487472,"apogee_km":573.98537854552,"semimajor_km":6950.1860567101,"source":"CELESTRAK","updated_at":"2026-05-25T13:38:17.882751Z"}}}